sat.trackr.live / text

‹ back to catalog

STARLINK-5048

NORAD 53911 · 2022-119AB

PAYLOAD ACTIVE UNKNOWN

§ Identity

Operator
Country
US
Launch date
2022-09-24
Launch site
AFETR
Launch vehicle
Mass (kg)
RCS (m²)

Purposes: comms

External: N2YO · Heavens-Above · Gunter

§ Orbital elements

Epoch: 2026-05-24T22:34:56.434080Z

Period
95.44 min
Inclination
53.2141°
Eccentricity
0.0001506
Mean motion
15.08799980 rev/d
Perigee alt
538.8 km
Apogee alt
540.9 km
Semi-major
6,918.0 km
B*
6.0311e-4
RAAN
331.9948°
Arg perigee
86.1339°
Mean anomaly
273.9826°
Rev number
20,333

§ Raw data

STARLINK-50481 53911U 22119AB  26144.94093095  .00009313  00000+0  60311-3 0  99992 53911  53.2141 331.9948 0001506  86.1339 273.9826 15.08799980203330

JSON: /api/v1/satellites/53911 · /tle

For live sub-satellite position, see the globe view (requires WebGL).

§ Visibility from observer

Set your observer location to see the next 7 days of passes ≥ 10°. The values pass through the URL so the page stays shareable.

No JS? Fill the form by hand. The geolocation button needs JavaScript.